FLOCK 3P-25 (41964 NORAD) Tracking and Keplerian Element Data

This shows tracking and keplerian element data for the satellite.

Feedback or suggestion? Click here.




ElementValue
Catalog41964
NameFLOCK 3P-25
Epoch Orbit17710
Epoch Day114.72643821
Epoch Year2020
RAAN183.6102
Inclination97.3645
Eccentricity0.0009581
Argument of Perigee119.3257
Mean Anonmoly240.894
Mean Motion15.27742447
Decay Rate3.209E-05
L11 41964U 17008S 20114.72643821 .00003209 00000-0 12102-3 0 9994
L22 41964 97.3645 183.6102 0009581 119.3257 240.8940 15.27742447177108



Live tracking and technical data element details for FLOCK 3P-25 (NORAD 41964). FLOCK 3P-25 can be tracked NOW for your location showing map with azimuth and elevation plus other details from your city location.







IsCatalogInMostPopularTable: catalog: 41964, numindb: 558
Update: records affected: 1



GetName: 41964 FLOCK 3P-25

Hit Count: updated at: Thu, 22 May 2025 04:42:46 GMT